Location: Cherry Springs State Park
(41.6616°N, 77.8240°W)
Time: 10:18:45
(UTC-04:00)

Daily predictions for brighter satellites

Satellite Brightness Start Highest point End
(mag) Time Altitude Azimuth Time Altitude Azimuth Time Altitude Azimuth
NOSS 3-4 (A) 4.2 20:06:18 10° NW 20:13:19 71° WSW 20:20:44 10° SSE
NOSS 3-4 (C) 4.2 20:06:25 10° NW 20:13:27 72° WSW 20:20:52 10° SSE
Cosmos 2227 Rocket 2.2 20:07:56 10° NNW 20:13:38 83° ENE 20:19:17 10° SSE
Cosmos 1602 Rocket 4.2 20:10:12 10° N 20:14:19 35° ENE 20:18:23 10° SE
CZ-2D R/B 3.7 20:15:44 10° SE 20:19:23 42° ENE 20:23:05 10° N
Cosmos 1500 4.4 20:17:33 10° SE 20:20:30 22° E 20:23:28 10° NE
Cosmos 2123 Rocket 4.0 20:16:56 10° N 20:23:08 76° E 20:29:19 10° SSE
FengYun 1-2 T 4.3 20:18:22 10° SSE 20:24:00 85° ENE 20:29:38 10° NNW
Resurs 1-3 3.8 20:22:17 10° S 20:26:40 78° WSW 20:31:05 10° NNW
Cosmos 2297 Rocket 2.2 20:22:50 10° NNW 20:28:32 79° ENE 20:34:11 10° SSE
Okean 2 4.1 20:25:40 10° NNW 20:29:46 58° W 20:33:50 10° S
Cosmos 2082 3.9 20:24:40 10° NNW 20:30:19 78° WSW 20:35:55 10° SSE
Helios 1B rocket 3.5 20:27:02 10° N 20:31:03 51° WNW 20:35:02 10° SSW
CZ-4B DEB 2.8 20:28:53 10° SSE 20:32:09 88° WSW 20:35:27 10° NNW
SL-24 R/B - RUBIN 2 4.4 20:29:51 10° SSW 20:35:40 77° ESE 20:42:11 10° NE
Meteor 1-12 Rocket 4.3 20:30:17 10° S 20:35:58 68° E 20:41:48 10° NNE
Iridium 4 Rocket 3.5 20:35:49 10° N 20:40:38 49° E 20:45:02 10° SSE
Cosmos 1346 Rocket 4.0 20:39:46 10° NNW 20:43:34 44° W 20:47:22 10° SSW
Cosmos 1515 3.8 20:40:39 10° N 20:44:26 53° E 20:48:10 10° SSE
Envisat 3.9 20:46:26 15° ESE 20:49:52 30° ENE 20:54:15 10° N
Lacrosse 5 1.9 20:44:49 10° NW 20:49:53 70° NE 20:53:46 17° SE
Cosmos 1939 Rocket 4.0 20:48:12 17° ESE 20:50:34 27° ENE 20:54:07 10° N
Cosmos 1937 Rocket 3.8 20:45:30 10° N 20:50:38 50° ENE 20:54:56 15° SE
Resurs 01 Rocket 3.6 20:49:38 10° SSW 20:53:33 30° W 20:57:29 10° NW
Cosmos 2298 Rocket 4.0 20:48:45 10° NNW 20:54:06 82° ENE 20:59:26 10° SSE
Cosmos 1153 Rocket 4.4 20:48:56 10° S 20:55:06 77° E 21:01:14 10° N
Cosmos 990 Rocket 4.4 20:54:49 10° N 20:59:51 44° ENE 21:03:09 20° SE
SPOT 5 4.2 20:58:57 18° E 21:00:55 23° ENE 21:04:38 10° NNE
Cosmos 1743 3.2 20:59:22 13° SSE 21:02:28 39° E 21:06:08 10° NNE
Cosmos 1697 Rocket 2.6 20:57:24 10° SSW 21:03:03 80° ESE 21:08:43 10° NNE
SJ-11-01 4.4 21:03:16 16° SSE 21:06:53 58° ENE 21:11:29 10° N
Cosmos 1066 Rocket 4.2 21:01:39 10° N 21:07:22 77° E 21:13:10 10° SSE
Cosmos 1726 Rocket 4.3 21:09:03 25° ESE 21:10:25 31° E 21:14:18 10° NNE
Cosmos 1802 Rocket 4.2 21:06:04 10° SSE 21:12:13 53° E 21:18:28 10° NNE
ERS-1 Rocket 3.0 21:08:34 18° SSE 21:12:14 61° ENE 21:17:13 10° N
SL-16 R/B 3.4 21:16:07 21° E 21:16:07 21° E 21:19:39 10° NE
RESURS DK-1 2.3 21:12:25 10° NNW 21:16:36 89° WSW 21:18:51 26° SSE
Cosmos 2150 Rocket 4.2 21:14:16 10° NNW 21:19:23 69° WSW 21:23:51 14° S
Cosmos 2016 Rocket 4.1 21:14:02 10° SSE 21:19:47 50° E 21:25:45 10° NNE
CZ-4 DEB 2.6 21:19:00 37° SSE 21:20:08 85° ENE 21:23:17 10° N
Cosmos 1763 Rocket 3.4 21:19:50 10° S 21:24:50 59° ESE 21:29:50 10° NNE
Cosmos 1825 Rocket 3.5 21:20:29 10° N 21:24:54 68° E 21:26:56 31° SSE
USA 186 3.7 21:23:23 10° SSW 21:25:58 25° W 21:28:23 10° NW
ALOS 4.0 21:22:07 10° SSW 21:26:17 32° W 21:30:28 10° NNW
OAO 2 Rocket 4.1 21:22:08 10° WSW 21:26:44 37° S 21:28:13 30° SSE
Cosmos 1980 Rocket 2.1 21:21:22 10° SSW 21:27:01 76° ESE 21:32:44 10° NNE
Cosmos 2173 Rocket 4.0 21:25:23 10° S 21:31:45 85° E 21:38:06 10° N
Cosmos 1898 Rocket 4.3 21:27:26 10° NNW 21:32:33 49° WSW 21:37:06 13° S
Cosmos 2098 Rocket 4.1 21:31:59 21° SSE 21:36:23 51° E 21:41:49 10° NNE
Cosmos 1953 Rocket 3.5 21:32:05 10° N 21:36:32 67° E 21:37:48 44° SE
Cosmos 1842 3.7 21:33:21 10° N 21:36:55 42° ENE 21:36:55 42° ENE
H-2A R/B 2.0 21:37:53 50° ESE 21:38:31 57° ENE 21:42:37 10° N
Cosmos 1125 Rocket 4.0 21:33:53 10° N 21:38:48 40° ENE 21:39:49 36° E
Nimbus 7 Rocket 4.4 21:35:27 10° NNE 21:41:28 60° ESE 21:45:43 20° S
Cosmos 2228 4.1 21:43:11 30° ENE 21:43:11 30° ENE 21:45:58 10° NNE
Cosmos 967 Rocket 4.4 21:35:49 10° NNW 21:42:13 88° ENE 21:45:05 35° SSE
SWAS 4.5 21:44:01 56° ESE 21:44:01 56° ESE 21:48:09 10° NNE
Cosmos 1666 3.1 21:45:23 48° NE 21:45:23 48° NE 21:48:26 10° NNE
Cosmos 2100 Rocket 4.3 21:42:32 10° SSW 21:48:45 65° W 21:54:58 10° N
Cosmos 841 Rocket 3.4 21:43:56 10° SSW 21:49:10 87° ESE 21:54:25 10° NNE
CZ-3C R/B 4.3 21:22:40 10° W 21:49:26 24° SW 21:55:35 14° S
Tiangong 1 2.6 21:48:13 10° W 21:50:13 30° WSW 21:50:13 30° WSW
Cosmos 2263 Rocket 3.2 21:47:18 10° N 21:52:07 29° NE 21:52:51 28° ENE
YAOGAN 6 3.3 21:53:36 44° NE 21:53:36 44° NE 21:56:30 10° N
Cosmos 1758 Rocket 3.4 21:50:35 10° N 21:54:58 90° SSE 21:55:33 66° S
ASTEX 1 3.3 21:52:52 10° N 21:57:53 76° E 21:58:58 54° SSE
Tsikada Rocket 4.0 21:54:09 10° N 22:00:34 68° E 22:02:25 47° SE
Cosmos 2322 Rocket 2.2 22:00:47 55° SE 22:01:09 56° ESE 22:06:39 10° NNE
Cosmos 1340 3.6 21:59:38 10° NNW 22:03:15 43° W 22:03:55 38° SW
deb Chang Zheng 4 3.6 21:59:57 10° N 22:04:26 79° WNW 22:05:36 49° SSW
Meteor 2-17 Rocket 4.5 22:08:22 52° E 22:08:36 52° E 22:14:27 10° NNE
Meteor 1-15 Rocket 4.2 22:08:02 45° S 22:09:57 80° E 22:15:50 10° NNE
MetOp-A 4.1 22:12:56 59° S 22:14:00 82° WSW 22:19:23 10° NNW
Meteor 2-9 Rocket 4.1 22:12:18 41° SSW 22:14:17 83° W 22:19:43 10° N
Cosmos 372 Rocket 4.3 22:09:27 10° N 22:14:11 50° NE 22:14:11 50° NE
Cosmos 1816 Rocket 4.4 22:11:01 10° N 22:17:24 72° E 22:18:25 61° SE
Cosmos 1725 Rocket 4.0 22:18:11 36° SSW 22:20:52 82° W 22:27:10 10° N
Cosmos 2058 Rocket 3.7 22:22:25 48° WSW 22:23:09 54° W 22:27:36 10° N
Envisat 4.4 22:26:38 24° SW 22:28:47 33° W 22:33:21 10° NNW
Cosmos 405 Rocket 4.5 22:25:28 10° N 22:27:16 26° N 22:27:16 26° N
Lacrosse 5 3.7 22:28:46 10° WNW 22:32:22 20° WSW 22:32:58 19° SW
Cosmos 332 Rocket 4.5 22:36:59 48° NNE 22:36:59 48° NNE 22:40:34 10° NNE
BREEZE-M DEB (TANK) 4.0 22:34:13 10° WNW 22:35:26 28° W 22:35:26 28° W
SPOT 5 3.8 22:38:12 39° WSW 22:38:45 41° W 22:43:17 10° NNW
CZ-4B R/B 4.2 22:35:53 10° NNE 22:39:05 43° NNE 22:39:05 43° NNE
Cosmos 2233 Rocket 3.8 22:43:02 80° SSW 22:43:24 88° W 22:49:41 10° N
H-2A R/B 2.8 22:56:29 44° N 22:56:29 44° N 22:59:53 10° N
Terra 3.1 22:59:15 35° N 22:59:15 35° N 23:02:05 10° N
ARGOS 3.6 22:57:44 55° W 22:57:44 55° W 23:02:41 10° NNW
SL-16 R/B 2.8 22:57:52 45° WSW 22:59:05 53° WNW 23:04:40 10° NNE
Cosmos 1844 Rocket 4.3 22:58:59 10° N 23:02:32 24° NE 23:02:32 24° NE
Cosmos 2360 Rocket 3.6 23:14:23 29° NNE 23:14:23 29° NNE 23:17:02 10° NNE
BREEZE-M DEB (TANK) 4.1 22:47:39 10° WNW 23:13:52 87° SW 23:14:38 76° SE
USA 215 3.3 23:21:34 69° NNE 23:21:34 69° NNE 23:27:43 10° NW
BREEZE-M DEB (TANK) 4.4 23:22:30 10° W 23:27:45 35° WNW 23:27:45 35° WNW
BREEZE-M DEB (TANK) 4.1 23:20:07 10° WNW 23:31:51 57° W 23:31:51 57° W
Cosmos 2263 Rocket 3.5 23:30:57 10° NW 23:34:33 34° WNW 23:34:33 34° WNW
Cosmos 2322 Rocket 4.2 23:42:28 15° W 23:45:34 23° NW 23:50:01 10° N
